Airfield :
LOGIN :

Register | Disclaimer

   EN    FR    IT 

 










Legend :    VFR   Marginal VFR   IFR   Intensive IFR   Very Intensive IFR
Visi :
Ceiling :
>= 8 km
>= 3000ft
5 to 8 km
1000 to 3000 ft
1500m to 5 km
500 to 1000 ft
800 to 1500m
200 to 500 ft
< 800m
< 200 ft
Symbols :   Thunderstorms  Fog  Heavy snow  Heavy precipitations  Wind > 20 kt
SIGMETs :     Misc.  Thunderstorms  Icing  Turbulence  Mountain Waves  Volcanic Ashes






- Airport Elevation : 286 ft
- IATA code : FFD


EGVA - RAF Fairford

CURRENT METAR :
  • 032356Z AUTO 00000KT 9999 CLR 11/07 A3006 RMK AO2 SLP182 60000 T01090070 10195 20102 402080077 50007 $

EXPIRED METARs :
  • 032256Z AUTO 32003KT 9999 CLR 13/07 A3006 RMK AO2 SLP181 T01300074 $
  • 032156Z AUTO 25005KT 9999 OVC055 13/08 A3005 RMK AO2 SLP178 T01270080 $

Expired Forecast.



MET'MAP, your aeronautical weather chart ! - Copyright ORBIFLY December 2007 - Disclaimer

ORBIFLY MET'MAP TEAM :

Programming & Development : Alexandra Zaïnal
Concept & original design : Baudouin d'Aumeries
Assistance for programming : Marc-Olivier Méhu
Technical & hardware support : Manuel Goepfert

Contact : metmap@orbifly.com




SOURCES & CREDITS :

   NOAA